Regional Weather Roundup
Issued by NWS

Home | Current Version | Previous Version | Text Only | Print | Product List | Glossary Off
Versions: 1 2 3 4 5 6 7 8 9 10 11 12 13 14 15 16 17 18 19 20 21 22 23 24 25 26 27 28 29 30 31 32 33 34 35 36 37 38 39 40 41 42 43 44 45 46 47 48 49 50

353
ASUS43 KDTX 200210
RWRMI
MICHIGAN HOURLY REGIONAL WEATHER ROUNDUP
NATIONAL WEATHER SERVICE DETROIT/PONTIAC MI
1000 PM EDT THU APR 19 2018

NOTE: "FAIR" INDICATES FEW OR NO CLOUDS BELOW 12,000 FEET WITH NO
SIGNIFICANT WEATHER AND/OR OBSTRUCTION TO VISIBILITY.

MIZ047>049-052>055-059>063-066>070-074>076-081>083-200300-
SOUTHEAST LOWER MICHIGAN

CITY           SKY/WX    TMP DP  RH WIND       PRES   REMARKS
ADRIAN         FAIR      44  18  35 N7        30.30R
ALMA           FAIR      41  19  41 NW8G22    30.34R
ANN ARBOR      FAIR      43  19  38 NW7       30.29R
BAD AXE        FAIR      37  21  51 W3        30.29R
CARO           FAIR      37  25  63 NW5       30.29R WCI  33
DETROIT CITY   FAIR      37  24  59 SE3       30.31R
DETROIT        FAIR      39  28  64 SE5       30.31R
FLINT          FAIR      41  22  46 NW13      30.31R
GROSSE ILE     FAIR      37  29  74 E3        30.31R
HILLSDALE      FAIR      41  30  65 W10       30.30R
HOWELL         FAIR      42  20  41 NW8       30.30R

CITY           SKY/WX    TMP DP  RH WIND       PRES   REMARKS
JACKSON        FAIR      45  19  35 NW10      30.31R
LAMBERTVILLE   FAIR      44  30  56 E3        30.30R
LANSING        FAIR      43  19  38 NW9       30.33R
LAPEER         FAIR      35  24  64 CALM      30.29R
MASON          FAIR      44  14  30 NW9       30.31R
MONROE         FAIR      39  30  70 E3        30.30R
MT. CLEMENS    CLEAR     37  27  67 VRB2      30.29R
PONTIAC        FAIR      42  22  44 NW3       30.28R
PORT HOPE        N/A     37  29  72 W6        30.27R WCI  32
PORT HURON     FAIR      30  23  74 CALM      30.29R
TRI CITIES     FAIR      40  22  48 NW13      30.32R WCI  32
MIDLAND        FAIR      39  22  51 NW9       30.32R WCI  32
TROY           FAIR      41  26  55 SE5       30.31R
SAGINAW HB     FAIR      39  23  52 NW12G20   30.31R WCI  32
$$
MIZ043>046-050>051-056>058-064>065-071>073-077>080-200300-
SOUTHWEST LOWER MICHIGAN

CITY           SKY/WX    TMP DP  RH WIND       PRES   REMARKS
BATTLE CREEK   FAIR      43  19  38 NW13      30.35R
BENTON HARBOR  FAIR      36  27  69 CALM      30.40R
BIG RAPIDS     FAIR      38  11  33 NW3       30.34S
COLDWATER      FAIR      40  28  64 NW9       30.33R WCI  33
FREMONT        FAIR      35  16  45 NW7       30.37S WCI  29
HOLLAND        FAIR      39  22  50 NW5       30.39R
GRAND RAPIDS   FAIR      42  18  37 NW9       30.36R
IONIA          FAIR      42  17  36 NW8       30.34R
KALAMAZOO      FAIR      40  22  48 NW10      30.36R WCI  33
LUDINGTON      FAIR      32  27  81 CALM      30.38S
MARSHALL       FAIR      43  19  38 NW5       30.33R
MOUNT PLEASANT FAIR      41  18  40 N7        30.33R
MUSKEGON       FAIR      37  21  52 NW3       30.38F
SOUTH HAVEN    FAIR      37  28  71 NW3       30.40R
$$
MIZ016>042-200300-
NORTHERN LOWER MICHIGAN

CITY           SKY/WX    TMP DP  RH WIND       PRES   REMARKS
ALPENA         FAIR      38  20  48 NW7       30.29R WCI  33
BEAVER ISLAND  FAIR      37  22  56 NW5       30.36S WCI  33
BELLAIRE       FAIR      32  19  59 CALM      30.37R
CADILLAC       FAIR      35  17  47 CALM      30.33R
CHARLEVOIX     FAIR      35  23  61 W6        30.39R WCI  30
FRANKFORT      FAIR      32  25  73 CALM      30.37S
GAYLORD        FAIR      34  19  54 NW7       30.31S WCI  28
GRAYLING       FAIR      35  19  52 NW7       30.32R WCI  29
HARBOR SPRINGS FAIR      37  17  44 NW6       30.34S WCI  32
HOUGHTON LAKE  FAIR      35  20  54 NW7       30.33R WCI  29
MANISTEE       FAIR      29  25  85 CALM      30.37S
OSCODA         FAIR      39  17  40 NW9       30.29R WCI  33
PELLSTON       FAIR      35  21  56 W8        30.34R WCI  29
ROGERS CITY    FAIR      37  20  50 NW7       30.31R WCI  32
TRAVERSE CITY  FAIR      34  25  69 CALM      30.37R
$$
MIZ007>008-015-200300-
EASTERN UPPER MICHIGAN

CITY           SKY/WX    TMP DP  RH WIND       PRES   REMARKS
KINROSS        FAIR      34  22  61 NW13      30.32R WCI  25
MACKINAC ISLAN FAIR      34  18  52 NW8       30.33R WCI  28
NEWBERRY       FAIR      31  18  56 W6        30.34R WCI  26
S. S. MARIE    FAIR      34  26  72 W8        30.31R WCI  27
MUNISING         N/A     30  23  75 CALM      30.37S
$$
MIZ004>006-011>014-085-200300-
CENTRAL UPPER MICHIGAN

CITY           SKY/WX    TMP DP  RH WIND       PRES   REMARKS
MANISTIQUE     FAIR      35   9  33 NW7       30.36S WCI  29
ESCANABA       FAIR      38   7  27 NW3       30.38S
MENOMINEE      FAIR      37  15  40 CALM      30.39S
SAWYER-GWINN   CLEAR     39   9  28 CALM      30.37S
$$
MIZ001>003-009>011-084-200300-
WESTERN UPPER MICHIGAN

CITY           SKY/WX    TMP DP  RH WIND       PRES   REMARKS
IRON MOUNTAIN  FAIR      36  16  44 CALM      30.37R
HOUGHTON       FAIR      36  14  40 NW6       30.36F WCI  31
COPPER HARBOR    N/A     32  18  56 CALM      30.37S
IRONWOOD       FAIR      35  15  44 CALM      30.40S
$$

ABBREVIATIONS USED IN REMARKS
   TC - TEMPERATURE IN CELSIUS
  WCI - WIND CHILL INDEX
   HX - HEAT INDEX
  VSB - VISIBILITY





USA.gov is the U.S. government's official web portal to all federal, state and local government web resources and services.